GW3137 Weather Reports


time (UTC)temp
F
wind
direction
speed
knots
gust
knots
rain 1hr
in
rain 24hr
in
rain mn
in
humidity
%
barometer
mb
20260503183705 74 20 2.6 7.0 0.00 0.00 0.00 56 1013.1
20260503183205 73 332 3.5 10.4 0.00 0.00 0.00 56 1013.2
20260503180705 71 318 2.6 7.0 0.00 0.00 0.00 58 1013.3
20260503173704 69 343 2.6 6.1 0.00 0.00 0.00 60 1013.4
20260503173204 69 320 1.7 7.8 0.00 0.00 0.00 61 1013.5
20260503170704 67 34 1.7 7.0 0.00 0.00 0.00 64 1013.6
20260503170204 67 358 1.7 6.1 0.00 0.00 0.00 64 1013.7
20260503150704 60 338 0.0 0.0 0.00 0.00 0.00 79 1013.9
20260503150204 60 338 0.0 0.0 0.00 0.00 0.00 79 1014.0
20260503140204 56 77 0.0 0.0 0.00 0.00 0.00 83 1013.7
20260503130704 54 77 0.0 0.0 0.00 0.00 0.00 85 1013.8
20260503130204 55 77 0.0 0.0 0.00 0.00 0.00 84 1013.7
20260503120204 56 76 0.0 0.0 0.00 0.00 0.00 83 1013.8
20260503110704 57 81 0.0 0.0 0.00 0.00 0.00 80 1013.9
20260503110204 57 81 0.0 0.0 0.00 0.00 0.00 80 1013.9
20260503100204 59 118 0.0 2.6 0.00 0.00 0.00 75 1014.0
20260503090204 59 60 0.0 1.7 0.00 0.00 0.00 70 1014.2
20260503080703 61 57 0.9 1.7 0.00 0.00 0.00 67 1014.2
20260503080204 61 57 0.9 1.7 0.00 0.00 0.00 66 1014.1
20260503070704 63 57 0.9 2.6 0.00 0.00 0.00 61 1014.1
20260503070204 63 60 0.9 2.6 0.00 0.00 0.00 62 1014.1
20260503060204 65 89 0.0 4.3 0.00 0.00 0.00 57 1014.0
20260503053704 65 29 0.9 2.6 0.00 0.00 0.00 58 1013.8
20260503050704 67 38 0.9 2.6 0.00 0.00 0.00 53 1013.8
20260503043704 68 32 2.6 6.1 0.00 0.00 0.00 50 1013.6
20260503043204 69 27 2.6 7.8 0.00 0.00 0.00 50 1013.5
20260503040204 69 24 2.6 7.0 0.00 0.00 0.00 53 1013.4
20260503033704 69 30 0.9 2.6 0.00 0.00 0.00 59 1012.9
20260503033204 70 34 0.9 6.1 0.00 0.00 0.00 58 1012.9
20260503023704 74 0 1.7 5.2 0.00 0.00 0.00 54 1012.2
20260503020205 76 312 3.5 7.8 0.00 0.00 0.00 51 1012.3
20260503013704 77 324 2.6 10.4 0.00 0.00 0.00 49 1012.4
20260503010704 78 311 0.9 2.6 0.00 0.00 0.00 47 1012.5
20260503003203 78 8 1.7 10.4 0.00 0.00 0.00 48 1012.6
20260503000204 80 343 2.6 10.4 0.00 0.00 0.00 46 1012.7
20260502233204 77 293 5.2 12.2 0.00 0.00 0.00 48 1013.1
20260502230704 76 327 4.3 10.4 0.00 0.00 0.00 50 1013.4
20260502230204 76 254 5.2 12.2 0.00 0.00 0.00 49 1013.5
20260502223704 76 289 4.3 10.4 0.00 0.00 0.00 51 1013.8
20260502223204 77 292 2.6 12.2 0.00 0.00 0.00 51 1013.9
20260502220704 76 349 1.7 8.7 0.00 0.00 0.00 56 1014.1
20260502220205 76 298 2.6 11.3 0.00 0.00 0.00 54 1014.2
20260502213204 75 276 3.5 11.3 0.00 0.00 0.00 55 1014.5
20260502210704 72 294 4.3 10.4 0.00 0.00 0.00 58 1014.7
20260502210204 73 303 4.3 10.4 0.00 0.00 0.00 56 1014.8
20260502203703 73 291 4.3 8.7 0.00 0.00 0.00 57 1014.9
20260502203204 72 299 2.6 11.3 0.00 0.00 0.00 60 1014.9
20260502200704 71 285 2.6 8.7 0.00 0.00 0.00 62 1015.3
20260502200204 70 328 3.5 10.4 0.00 0.00 0.00 62 1015.3
20260502193704 69 294 2.6 7.8 0.00 0.00 0.00 64 1015.6
20260502193204 69 331 1.7 11.3 0.00 0.00 0.00 65 1015.6
20260502190704 66 309 5.2 10.4 0.00 0.00 0.00 67 1016.0